Change the Weather History Date:

Thursday, September 19, 2013

  Actual Average Record
Temperature  
Mean Temperature 80 °F -  
Max Temperature 84 °F 81 °F 86 °F (2010)
Min Temperature 75 °F 72 °F 73 °F (1999)
Cooling Degree Days 14    
Growing Degree Days 30 (Base 50)    
Moisture  
Dew Point 69 °F    
Average Humidity 72    
Maximum Humidity 84    
Minimum Humidity 60    
Precipitation  
Precipitation 0.00 in - - ()
Sea Level Pressure  
Sea Level Pressure 30.01 in    
Wind  
Wind Speed 9 mph (ENE)    
Max Wind Speed 13 mph    
Max Gust Speed 24 mph    
Visibility 10 miles    
Events Rain    
Averages and records for this station are not official NWS values.
T = Trace of Precipitation, MM = Missing Value Source: NWS Daily Summary

Daily Weather History Graph

Daily Weather History Graph

Search for Another Location

Airport or City:

Trip Planner

Search our weather history database for the weather conditions in past years. The results will help you decide how hot, cold, wet, or windy it might be!

Date:

Astronomy

Sep. 19, 2013 Rise Set
Actual Time 6:19 AM HST 6:29 PM HST
Civil Twilight 5:56 AM HST 6:51 PM HST
Nautical Twilight 5:31 AM HST 7:17 PM HST
Astronomical Twilight 5:05 AM HST 7:43 PM HST
Moon 6:46 PM HST (9/19) 6:32 AM HST (9/19)
Length of Visible Light 12h 55m
Length of Day
12h 10m
Full, 100% of the Moon is Illuminated
Sep 19
Full
Sep 26
Last Quarter
Oct 4
New
Oct 11
First Quarter
Oct 18
Full

Hourly Weather History & Observations

Time (HST) Temp. Heat Index Dew Point Humidity Pressure Visibility Wind Dir Wind Speed Gust Speed Precip Events Conditions
12:39 AM 77.0 °F - 69.8 °F 78% 30.00 in 6.2 mi East 8.1 mph - 0.00 in   Mostly Cloudy
12:57 AM 77.0 °F - 69.1 °F 76% 29.98 in 10.0 mi East 11.5 mph 19.6 mph 0.00 in   Mostly Cloudy
1:11 AM 75.2 °F - 69.8 °F 83% 29.99 in 6.2 mi East 12.7 mph 18.4 mph N/A   Scattered Clouds
1:57 AM 75.2 °F - 69.1 °F 81% 29.98 in 10.0 mi East 8.1 mph 17.3 mph N/A   Partly Cloudy
2:57 AM 75.2 °F - 68.0 °F 78% 29.97 in 10.0 mi ENE 9.2 mph - N/A   Clear
3:57 AM 75.2 °F - 69.1 °F 81% 29.96 in 10.0 mi ENE 8.1 mph - N/A   Scattered Clouds
4:57 AM 75.2 °F - 68.0 °F 78% 29.96 in 7.0 mi ENE 4.6 mph 24.2 mph 0.00 in Rain Light Rain
5:57 AM 75.2 °F - 70.0 °F 84% 29.97 in 10.0 mi East 5.8 mph - 0.00 in   Scattered Clouds
6:57 AM 75.2 °F - 69.1 °F 81% 30.00 in 10.0 mi ENE 4.6 mph - N/A   Partly Cloudy
7:57 AM 77.0 °F - 69.1 °F 76% 30.02 in 10.0 mi ENE 8.1 mph - N/A   Clear
8:57 AM 78.8 °F - 68.0 °F 69% 30.03 in 10.0 mi ENE 8.1 mph 17.3 mph N/A   Clear
9:57 AM 80.6 °F 83.2 °F 68.0 °F 65% 30.04 in 10.0 mi ENE 10.4 mph - N/A   Partly Cloudy
10:57 AM 82.4 °F 85.8 °F 69.1 °F 64% 30.04 in 10.0 mi ENE 11.5 mph 17.3 mph N/A   Scattered Clouds
11:57 AM 82.4 °F 85.8 °F 69.1 °F 64% 30.04 in 10.0 mi NE 10.4 mph - N/A   Scattered Clouds
12:57 PM 84.2 °F 87.9 °F 69.1 °F 60% 30.01 in 10.0 mi ENE 11.5 mph 16.1 mph N/A   Clear
1:57 PM 84.2 °F 87.9 °F 69.1 °F 60% 30.00 in 10.0 mi ENE 9.2 mph - N/A   Clear
2:57 PM 84.2 °F 88.4 °F 70.0 °F 62% 29.99 in 10.0 mi ENE 9.2 mph - N/A   Scattered Clouds
3:57 PM 84.2 °F 87.9 °F 69.1 °F 60% 29.99 in 10.0 mi ENE 11.5 mph - N/A   Partly Cloudy
4:57 PM 82.4 °F 85.8 °F 69.1 °F 64% 29.99 in 10.0 mi ENE 6.9 mph 17.3 mph N/A   Scattered Clouds
5:57 PM 82.4 °F 85.8 °F 69.1 °F 64% 30.00 in 10.0 mi ENE 8.1 mph - N/A   Partly Cloudy
6:57 PM 80.6 °F 83.6 °F 69.1 °F 68% 30.01 in 10.0 mi East 8.1 mph - N/A   Partly Cloudy
7:57 PM 78.8 °F - 69.1 °F 72% 30.02 in 10.0 mi East 9.2 mph - N/A   Scattered Clouds
8:57 PM 77.0 °F - 68.0 °F 74% 30.04 in 10.0 mi ENE 9.2 mph - N/A   Scattered Clouds
9:57 PM 77.0 °F - 69.1 °F 76% 30.05 in 10.0 mi East 8.1 mph - N/A   Mostly Cloudy
10:57 PM 75.2 °F - 69.1 °F 81% 30.05 in 10.0 mi East 8.1 mph - N/A   Partly Cloudy
11:57 PM 75.2 °F - 68.0 °F 78% 30.04 in 10.0 mi East 6.9 mph 17.3 mph N/A   Clear